Change the Weather History Date:

Thursday, October 31, 2013

  Actual Average Record
Temperature  
Mean Temperature 44 °F -  
Max Temperature 59 °F 56 °F 73 °F (1950)
Min Temperature 28 °F 30 °F 17 °F (1966)
Degree Days  
Heating Degree Days 22    
Moisture  
Dew Point 42 °F    
Average Humidity 94    
Maximum Humidity 100    
Minimum Humidity 81    
Precipitation  
Precipitation 0.16 in - - ()
Sea Level Pressure  
Sea Level Pressure 30.43 in    
Wind  
Wind Speed 0 mph (NNW)    
Max Wind Speed 7 mph    
Max Gust Speed -    
Visibility 4 miles    
Events Fog , Rain    
Averages and records for this station are not official NWS values.
T = Trace of Precipitation, MM = Missing Value Source: NWS Daily Summary

Daily Weather History Graph

Daily Weather History Graph

Search for Another Location

Airport or City:

Trip Planner

Search our weather history database for the weather conditions in past years. The results will help you decide how hot, cold, wet, or windy it might be!

Date:

Astronomy

Oct. 31, 2013 Rise Set
Actual Time 7:19 AM EDT 5:39 PM EDT
Civil Twilight 6:49 AM EDT 6:08 PM EDT
Nautical Twilight 6:16 AM EDT 6:42 PM EDT
Astronomical Twilight 5:43 AM EDT 7:15 PM EDT
Moon 4:01 AM EDT (10/31) 3:59 PM EDT (10/31)
Length of Visible Light 11h 19m
Length of Day
10h 20m
Waning Crescent, 10% of the Moon is Illuminated
Oct 31
Waning Crescent
Nov 3
New
Nov 10
First Quarter
Nov 17
Full
Nov 25
Last Quarter

Hourly Weather History & Observations

Time (EDT) Temp. Windchill Dew Point Humidity Pressure Visibility Wind Dir Wind Speed Gust Speed Precip Events Conditions
12:51 AM 32.9 °F - 31.1 °F 93% 31.00 in 10.0 mi Calm Calm - N/A   Clear
1:51 AM 32.0 °F - 30.0 °F 92% 31.00 in 10.0 mi Calm Calm - N/A   Partly Cloudy
2:51 AM 31.1 °F - 30.0 °F 96% 30.99 in 10.0 mi Calm Calm - N/A   Clear
3:51 AM 30.0 °F - 28.0 °F 92% 30.98 in 10.0 mi Calm Calm - N/A   Clear
4:51 AM 30.0 °F - 29.1 °F 96% 30.96 in 10.0 mi Calm Calm - N/A   Clear
5:51 AM 30.0 °F - 29.1 °F 96% 30.99 in 10.0 mi Calm Calm - N/A   Clear
6:51 AM 30.0 °F - 28.0 °F 92% 30.97 in 10.0 mi Calm Calm - N/A   Clear
7:30 AM 28.4 °F 23.3 °F 28.4 °F 100% 30.21 in 10.0 mi NNW 4.6 mph - N/A   Mostly Cloudy
7:51 AM 31.1 °F - 30.0 °F 96% 30.98 in 10.0 mi Calm Calm - N/A   Mostly Cloudy
8:51 AM 32.9 °F - 32.0 °F 96% 30.99 in 9.0 mi Calm Calm - N/A   Mostly Cloudy
9:08 AM 33.8 °F - 32.0 °F 93% 30.22 in 1.8 mi Calm Calm - N/A   Overcast
9:11 AM 33.8 °F - 33.8 °F 100% 30.22 in 1.0 mi Calm Calm - N/A   Overcast
9:16 AM 33.8 °F - 33.8 °F 100% 30.22 in 0.5 mi Calm Calm - N/A Fog Fog
9:33 AM 35.6 °F - 33.8 °F 93% 30.21 in 0.2 mi Calm Calm - N/A Fog Fog
9:44 AM 35.6 °F - 35.6 °F 100% 30.20 in 0.8 mi Calm Calm - N/A   Mist
9:51 AM 36.0 °F - 34.9 °F 96% 30.97 in 0.8 mi Calm Calm - N/A   Mist
10:02 AM 35.6 °F - 35.6 °F 100% 30.19 in 1.2 mi Calm Calm - N/A   Mostly Cloudy
10:06 AM 37.4 °F - 35.6 °F 93% 30.19 in 2.0 mi Calm Calm - N/A   Partly Cloudy
10:15 AM 37.4 °F - 35.6 °F 93% 30.19 in 3.0 mi Calm Calm - N/A   Scattered Clouds
10:39 AM 39.2 °F - 37.4 °F 93% 30.18 in 1.0 mi Calm Calm - N/A   Mostly Cloudy
10:51 AM 38.8 °F - 37.9 °F 97% 30.94 in 1.0 mi Calm Calm - N/A   Mist
10:58 AM 39.2 °F - 37.4 °F 93% 30.17 in 2.5 mi Calm Calm - N/A   Partly Cloudy
11:11 AM 39.2 °F - 37.4 °F 93% 30.16 in 3.0 mi Calm Calm - N/A   Scattered Clouds
11:22 AM 41.0 °F - 37.4 °F 87% 30.16 in 4.0 mi Calm Calm - N/A   Mostly Cloudy
11:29 AM 42.8 °F - 37.4 °F 81% 30.16 in 5.0 mi Calm Calm - N/A   Mostly Cloudy
11:51 AM 43.0 °F - 38.8 °F 85% 30.91 in 5.0 mi Calm Calm - N/A   Overcast
12:11 PM 44.6 °F - 39.2 °F 81% 30.13 in 5.0 mi Calm Calm - N/A   Mostly Cloudy
12:19 PM 44.6 °F - 39.2 °F 81% 30.12 in 3.0 mi Calm Calm - N/A   Haze
12:51 PM 46.9 °F - 41.9 °F 83% 30.86 in 6.0 mi Calm Calm - N/A   Haze
1:29 PM 48.2 °F - 42.8 °F 82% 30.08 in 6.0 mi Calm Calm - N/A   Haze
1:51 PM 48.9 °F - 43.9 °F 83% 30.82 in 6.0 mi Calm Calm - N/A   Haze
2:51 PM 50.9 °F - 45.9 °F 83% 30.78 in 4.0 mi Calm Calm - N/A   Haze
3:19 PM 51.8 °F - 46.4 °F 82% 30.03 in 2.0 mi Calm Calm - 0.01 in Rain Light Rain
3:51 PM 50.0 °F - 48.9 °F 96% 30.76 in 1.2 mi Calm Calm - 0.06 in Rain Light Rain
3:58 PM 51.8 °F - 50.0 °F 94% 30.00 in 1.8 mi Calm Calm - 0.01 in Rain Light Rain
4:20 PM 51.8 °F - 50.0 °F 94% 29.99 in 2.5 mi Calm Calm - 0.01 in Rain Light Rain
4:40 PM 51.8 °F - 50.0 °F 94% 29.98 in 2.0 mi Calm Calm - 0.01 in Rain Light Rain
4:51 PM 50.9 °F - 50.9 °F 100% 30.73 in 1.8 mi Calm Calm - 0.01 in Rain Light Rain
5:11 PM 51.8 °F - 51.8 °F 100% 29.96 in 1.5 mi Calm Calm - 0.01 in Rain Light Rain
5:20 PM 51.8 °F - 51.8 °F 100% 29.96 in 1.2 mi Calm Calm - 0.01 in Rain Light Rain
5:41 PM 51.8 °F - 51.8 °F 100% 29.95 in 1.0 mi Calm Calm - 0.02 in Rain Light Rain
5:51 PM 52.0 °F - 52.0 °F 100% 30.70 in 1.0 mi Calm Calm - 0.03 in Rain Light Rain
6:08 PM 51.8 °F - 51.8 °F 100% 29.94 in 1.0 mi Calm Calm - 0.03 in Rain Light Rain
6:13 PM 53.6 °F - 53.6 °F 100% 29.94 in 1.2 mi Calm Calm - 0.03 in Rain Light Rain
6:17 PM 53.6 °F - 53.6 °F 100% 29.94 in 2.0 mi Calm Calm - 0.03 in Rain Light Rain
6:33 PM 55.4 °F - 55.4 °F 100% 29.93 in 3.0 mi Calm Calm - 0.03 in Rain Light Rain
6:51 PM 55.9 °F - 55.9 °F 100% 30.68 in 2.5 mi Calm Calm - 0.04 in Rain Light Rain
6:57 PM 55.4 °F - 55.4 °F 100% 29.93 in 3.0 mi Variable 3.5 mph - 0.01 in Rain Light Rain
7:51 PM 56.8 °F - 56.8 °F 100% 30.66 in 4.0 mi Calm Calm - 0.01 in   Partly Cloudy
8:51 PM 59.0 °F - 57.9 °F 96% 30.63 in 7.0 mi Variable 3.5 mph - 0.00 in Rain Light Rain
9:51 PM 59.0 °F - 59.0 °F 100% 30.60 in 7.0 mi Variable 4.6 mph - 0.00 in   Partly Cloudy
10:51 PM 59.0 °F - 57.9 °F 96% 30.57 in 7.0 mi Variable 6.9 mph - 0.01 in Rain Light Rain
11:51 PM 59.0 °F - 56.8 °F 93% 30.53 in 10.0 mi Variable 4.6 mph - 0.00 in   Clear